Location: B?jaj?g
(11.7167°N, 92.6667°E)
Time: 03:56:23
(UTC+00:00)

Okean 2 Rocket - Pass Details

Date: 18 September 2020
Orbit: 616 x 642 km, 82.5° (Epoch: 19 October)

Event Time Altitude Azimuth Distance (km) Brightness Sun altitude
Rises 13:01:03 0° 183° (S) 2,938 6.5 -18.7°
Reaches altitude 10° 13:03:17 10° 182° (S) 2,030 5.7 -19.2°
Maximum altitude 13:07:48 85° 93° (E) 646 3.0 -20.3°
Drops below altitude 10° 13:12:18 10° 6° (N) 2,024 5.7 -21.4°
Sets 13:14:32 0° 5° (N) 2,930 6.5 -22.0°
